#timestamp,LO_Frequency,Hit,StdDev 
1634997615.5,286047010.0,Y
1634997635.4,286047004.7,P
1634997655.2,286047007.4,P
1634997675.0,286047009.5,P
1634997675.9,286047009.5,Y
1634997695.8,286047002.9,P
1634997715.6,286047002.2,N
1634997735.4,286046999.7,N
1634997755.3,286046998.7,N
1634997775.1,286046999.3,N
1634997795.9,286046995.1,N
1634997815.7,286046998.9,N
1634997835.5,286047000.5,N
1634997855.4,286046997.7,N
1634997875.2,286046996.8,N
1634997895.0,286046997.2,N
1634997896.0,286046997.2,N
1634997915.8,286046996.1,N
1634997935.6,286046996.0,N
1634997955.5,286046997.5,N
1634997975.3,286046999.0,N
1634997995.1,286046999.4,N
1634998015.9,286046998.5,N
1634998035.7,286046999.1,N
1634998055.6,286046997.7,N
1634998075.4,286046997.2,N
1634998095.2,286046994.9,N
1634998115.1,286047000.5,N
1634998116.0,286047000.5,N
1634998135.8,286047001.9,N
1634998155.6,286047000.9,N
1634998175.5,286046997.3,N
1634998195.3,286046997.7,N
1634998215.2,286046994.9,N
1634998235.9,286046997.7,N
1634998255.7,286046997.2,N
1634998275.6,286046996.7,N
1634998295.4,286046998.3,N
1634998315.2,286046997.8,N
1634998335.1,286046997.4,N
1634998336.0,286046997.4,N
1634998355.8,286046997.7,N
1634998375.7,286047000.3,N
1634998395.5,286047000.9,N
1634998415.3,286046997.0,N
1634998435.2,286047000.6,N
1634998455.0,286047002.3,N
1634998455.9,286047002.3,N
1634998475.8,286047000.0,N
1634998495.6,286047004.4,N
1634998515.4,286046999.7,N
1634998535.3,286047003.0,N
1634998555.1,286047004.9,N
1634998575.8,286047006.5,N
1634998595.7,286047011.8,Y
1634998615.5,286047008.2,P
1634998635.4,286047007.7,N
1634998655.2,286047010.7,N
1634998675.0,286047010.0,N
1634998675.9,286047010.0,N
1634998695.8,286047010.5,N
1634998715.6,286047008.4,N
1634998735.4,286047006.8,N
1634998755.3,286047010.7,Y
1634998775.1,286047002.7,P
1634998795.9,286047003.9,N
1634998815.7,286047003.5,N
1634998835.5,286047004.8,N
1634998855.4,286047004.1,N
1634998875.2,286047004.0,N
1634998895.1,286047003.9,N
1634998896.0,286047003.9,N
1634998915.8,286047001.9,N
1634998935.6,286047003.6,N
1634998955.5,286047003.1,N
1634998975.3,286047004.6,Y
1634998995.2,286047004.4,P
1634999015.9,286047004.4,P
1634999035.8,286047001.4,P
1634999055.6,286046998.4,N
1634999075.4,286047000.1,N
1634999095.3,286047001.0,N
1634999115.1,286046998.5,N
1634999135.8,286046997.5,N
1634999155.7,286047000.6,N
1634999175.5,286047001.9,N
1634999195.4,286047000.2,N
1634999215.2,286047003.9,N
1634999235.0,286047003.9,N
1634999235.9,286047003.9,N
1634999255.8,286047007.0,Y
1634999275.6,286047003.2,P
1634999295.5,286047006.7,P
1634999315.3,286047004.7,N
1634999335.1,286047003.8,N
1634999355.9,286047001.5,N
1634999375.7,286047001.6,N
1634999395.5,286047000.2,N
1634999415.4,286047002.7,N
1634999435.2,286047005.4,N
1634999455.1,286047006.8,Y
1634999486.0,286047006.8,E
1634999495.9,286047001.9,N
1634999515.7,286046995.4,P
1634999535.6,286046996.0,N
1634999555.4,286046994.6,N
1634999575.2,286046988.5,Y
1634999595.1,286046991.9,P
1634999596.0,286046991.9,P
1634999645.8,286046997.8,E
1634999655.8,286046998.2,N
1634999675.6,286047003.3,P
1634999695.4,286047001.3,N
1634999715.3,286047001.4,N
1634999735.1,286047001.2,N
1634999755.9,286046996.9,N
1634999775.7,286046997.3,N
1634999795.5,286046998.7,N
1634999815.4,286046997.0,N
1634999835.2,286047002.7,N
1634999855.0,286047005.1,N
1634999855.9,286047005.1,N
1634999875.8,286047004.5,N
1634999895.6,286047007.2,N
1634999915.5,286047006.2,N
1634999935.3,286047007.4,N
1634999955.1,286047007.5,N
1634999975.9,286047008.0,N
1634999995.7,286047006.0,N
1635000015.6,286047003.5,N
1635000035.4,286047004.6,N
1635000055.2,286047005.8,N
1635000075.1,286047004.0,N
1635000076.0,286047004.0,N
1635000095.8,286047002.6,N
1635000115.6,286047002.8,N
1635000135.5,286047002.2,N
1635000155.3,286047003.5,N
1635000175.2,286047003.2,N
1635000195.9,286047000.0,N
1635000215.7,286046999.0,N
1635000235.6,286046999.3,N
1635000255.4,286046998.9,N
1635000275.3,286046995.0,N
1635000295.1,286046997.9,N
1635000296.0,286046997.9,N
1635000315.8,286046999.2,N
1635000335.7,286047000.8,N
1635000355.5,286047007.6,N
1635000375.3,286047005.0,N
1635000395.2,286047004.1,N
1635000415.0,286046999.8,N
1635000415.9,286046999.8,N
1635000435.8,286047002.3,N
1635000455.6,286047001.9,N
1635000475.4,286046998.2,N
1635000495.3,286047000.6,N
1635000515.1,286047001.1,N
1635000535.8,286047000.8,N
1635000555.7,286046998.1,N
1635000575.5,286046994.9,N
1635000595.4,286046995.0,N
1635000615.2,286046992.6,N
1635000635.0,286046990.4,N
1635000635.9,286046990.4,N
1635000655.8,286046992.9,N
1635000675.6,286046993.4,N
1635000695.5,286046997.7,N
1635000715.3,286046998.7,N
1635000735.1,286046998.1,N
1635000755.9,286046997.0,N
1635000775.7,286046995.4,N
1635000795.5,286046995.9,N
1635000815.4,286046992.5,N
1635000835.2,286046994.4,N
1635000855.1,286046988.6,N
1635000856.0,286046988.6,N
1635000875.8,286046992.4,N
1635000895.6,286046994.4,N
1635000915.5,286046990.9,N
1635000935.3,286046988.7,N
1635000955.1,286046985.9,Y
1635000975.9,286046989.0,P
1635000995.7,286046992.4,N
1635001015.6,286046991.1,P
1635001035.4,286046992.9,Y
1635001055.2,286047001.4,P
1635001075.1,286047002.1,N
1635001076.0,286047002.1,N
1635001095.8,286047003.0,N
1635001115.7,286047001.9,N
1635001135.5,286047002.3,N
1635001155.3,286047003.7,N
1635001175.2,286047003.9,N
1635001195.9,286047006.0,N
